Haleyville, AL

1:06 AM CDT on April 30, 2017 (GMT -0500)
Haleyville

Weather History for K1M4 - December, 2013

Change the Weather History Date:

Wednesday, December 11, 2013

  Actual Average (KJFX) Record (KJFX)
Temperature  
Mean Temperature 34 °F -  
Max Temperature 50 °F 54 °F 69 °F (1970)
Min Temperature 19 °F 32 °F 13 °F (1978)
Degree Days  
Heating Degree Days 30    
Moisture  
Dew Point 23 °F    
Average Humidity 73    
Maximum Humidity 100    
Minimum Humidity 27    
Precipitation  
Precipitation 0.00 in - - ()
Sea Level Pressure  
Sea Level Pressure 30.46 in    
Wind  
Wind Speed 1 mph (North)    
Max Wind Speed 8 mph    
Max Gust Speed -    
Visibility 10 miles    
Events      
Averages and records for this station are not official NWS values.
T = Trace of Precipitation, MM = Missing Value Source: NWS Daily Summary

Daily Weather History Graph

Daily Weather History Graph

Search for Another Location

Airport or City:

Trip Planner

Search our weather history database for the weather conditions in past years. The results will help you decide how hot, cold, wet, or windy it might be!

Date:

Astronomy

Dec. 11, 2013 Rise Set
Actual Time 6:46 AM CST 4:41 PM CST
Civil Twilight 6:18 AM CST 5:08 PM CST
Nautical Twilight 5:47 AM CST 5:40 PM CST
Astronomical Twilight 5:16 AM CST 6:10 PM CST
Moon 1:03 PM CST (12/11) 1:19 AM CST (12/11)
Length of Visible Light 10h 50m
Length of Day
9h 54m
Waxing Gibbous, 72% of the Moon is Illuminated
Dec 11
Waxing Gibbous
Dec 17
Full
Dec 25
Last Quarter
Jan 1
New
Jan 7
First Quarter

Hourly Weather History & Observations

Time (CST) Temp. Windchill Dew Point Humidity Pressure Visibility Wind Dir Wind Speed Gust Speed Precip Events Conditions
12:56 AM 23.0 °F - 23.0 °F 100% 30.43 in 10.0 mi Calm Calm - N/A   Clear
1:56 AM 22.1 °F - 21.0 °F 96% 30.44 in 10.0 mi Calm Calm - N/A   Clear
2:56 AM 21.0 °F - 20.1 °F 96% 30.44 in 10.0 mi Calm Calm - N/A   Clear
3:56 AM 21.0 °F - 20.1 °F 96% 30.43 in 10.0 mi Calm Calm - N/A   Clear
4:56 AM 20.1 °F - 19.0 °F 96% 30.44 in 10.0 mi Calm Calm - N/A   Clear
5:56 AM 19.0 °F - 18.1 °F 96% 30.45 in 10.0 mi Calm Calm - N/A   Clear
6:56 AM 19.0 °F - 18.1 °F 96% 30.46 in 10.0 mi Calm Calm - N/A   Clear
7:56 AM 26.1 °F - 25.2 °F 96% 30.46 in 10.0 mi Calm Calm - N/A   Clear
8:56 AM 34.0 °F 29.8 °F 27.1 °F 76% 30.47 in 10.0 mi East 4.6 mph - N/A   Clear
9:56 AM 39.9 °F - 24.1 °F 53% 30.47 in 10.0 mi Calm Calm - N/A   Clear
10:56 AM 45.0 °F - 19.0 °F 36% 30.47 in 10.0 mi Calm Calm - N/A   Clear
11:56 AM 46.9 °F - 16.2 °F 29% 30.44 in 10.0 mi Calm Calm - N/A   Clear
12:56 PM 50.0 °F - 19.0 °F 29% 30.42 in 10.0 mi Variable 5.8 mph - N/A   Clear
1:56 PM 50.9 °F - 18.1 °F 27% 30.42 in 10.0 mi West 3.5 mph - N/A   Clear
2:56 PM 48.9 °F - 24.1 °F 38% 30.43 in 10.0 mi Calm Calm - N/A   Clear
3:56 PM 45.0 °F 41.2 °F 26.1 °F 48% 30.44 in 10.0 mi North 6.9 mph - N/A   Clear
4:56 PM 37.9 °F - 30.0 °F 73% 30.45 in 10.0 mi Calm Calm - N/A   Clear
5:56 PM 34.9 °F - 30.0 °F 82% 30.46 in 10.0 mi Calm Calm - N/A   Clear
6:56 PM 32.9 °F 29.8 °F 28.0 °F 82% 30.47 in 10.0 mi North 3.5 mph - N/A   Clear
7:56 PM 30.0 °F - 28.0 °F 92% 30.47 in 10.0 mi Calm Calm - N/A   Clear
8:56 PM 31.1 °F 25.4 °F 26.1 °F 82% 30.48 in 10.0 mi North 5.8 mph - N/A   Clear
9:56 PM 31.1 °F 24.5 °F 25.2 °F 79% 30.49 in 10.0 mi North 6.9 mph - N/A   Clear
10:56 PM 30.0 °F 23.2 °F 25.2 °F 82% 30.51 in 10.0 mi North 6.9 mph - N/A   Clear
11:56 PM 30.0 °F 22.4 °F 25.2 °F 82% 30.52 in 10.0 mi North 8.1 mph - N/A   Clear